Regional Weather Roundup
Issued by NWS

Home | Current Version | Previous Version | Text Only | Print | Product List | Glossary On
Versions: 1 2 3 4 5 6 7 8 9 10 11 12 13 14 15 16 17 18 19 20 21 22 23 24 25 26 27
000
ASUS46 KPQR 210810
RWROR

OREGON REGIONAL WEATHER ROUNDUP
NATIONAL WEATHER SERVICE PORTLAND OR
1200 AM PST TUE FEB 21 2017

NOTE: "FAIR" INDICATES FEW OR NO CLOUDS BELOW 12,000 FEET WITH
NO SIGNIFICANT WEATHER AND/OR OBSTRUCTIONS TO VISIBILITY.

ORZ001>013-210900-
NORTHWEST OREGON


CITY           SKY/WX    TMP DP  RH WIND       PRES   REMARKS
ASTORIA        CLOUDY    44  41  89 NE8       29.67S
NEWPORT        RAIN      45  45 100 CALM      29.68R
PORTLAND       CLOUDY    44  42  93 CALM      29.66F
VANCOUVER WA   CLOUDY    44  44 100 CALM      29.66S FOG
SCAPPOOSE      CLOUDY    45  44  97 CALM      29.66F
HILLSBORO      CLOUDY    43  42  97 W5        29.65F
AURORA         LGT RAIN  46  44  93 N6        29.66S
MCMINNVILLE    LGT RAIN  45  43  93 N5        29.66S
SALEM          LGT RAIN  46  44  93 NW3       29.64S FOG
CORVALLIS        N/A     46  45  93 CALM      29.64S
EUGENE         RAIN      46  46 100 N5        29.65R FOG
$$

ORZ021-028-210900-
SOUTHWEST OREGON


CITY           SKY/WX    TMP DP  RH WIND       PRES   REMARKS
NORTH BEND     CLOUDY    46  46 100 SE5       29.64S
BROOKINGS      CLOUDY    52  50  93 S14G21    29.63S FOG
ROSEBURG       LGT RAIN  46  45  96 SW3       29.63F
SEXTON SUMMIT  FOG       33  33 100 S17G25    29.56F VSB 3/4 WCI  22
MEDFORD        LGT RAIN  44  43  96 E7        29.65S
$$

ORZ014>016-041-210900-
COLUMBIA GORGE


CITY           SKY/WX    TMP DP  RH WIND       PRES   REMARKS
TROUTDALE      CLOUDY    44  41  89 E8        29.65F
THE DALLES     LGT RAIN  41  38  89 CALM      29.69F
$$

ORZ029>031-041-044-049-050-061>064-502-503-505>511-210900-
EASTERN OREGON


CITY           SKY/WX    TMP DP  RH WIND       PRES   REMARKS
REDMOND        LGT RAIN  39  35  86 W5        29.59F
BEND           LGT RAIN  36  34  93 W3        29.60S
PRINEVILLE     CLOUDY    39  37  93 CALM      29.59S
KLAMATH FALLS  MOCLDY    37  34  89 SE12      29.65R WCI  29
LAKEVIEW       CLOUDY    34  30  86 S26G35    29.71S WCI  21
HERMISTON      LGT RAIN  42  40  92 E6        29.67F
PENDLETON      LGT RAIN  40  38  93 SE3       29.66F
JOHN DAY       DRIZZLE   42  39  89 CALM      29.63F
MEACHAM        LGT RAIN  33  30  88 CALM      29.64F
LA GRANDE      CLOUDY    41  34  75 CALM      29.65F
BAKER CITY     LGT RAIN  40  37  89 E9        29.67F WCI  34
BURNS          LGT RAIN  35  33  92 NE6       29.68R WCI  30
ROME             N/A     42  37  82 SE23G30   29.74
ONTARIO        CLOUDY    39  38  96 N3        29.75F FOG
$$




USA.gov is the U.S. government's official web portal to all federal, state and local government web resources and services.